Time,TemperatureF,DewpointF,PressureIn,WindDirection,WindDirectionDegrees,WindSpeedMPH,WindSpeedGustMPH,Humidity,HourlyPrecipIn,Conditions,Clouds,dailyrainin,SolarRadiationWatts/m^2,SoftwareType,DateUTC
2013-08-26 00:00:00,81.3,76.0,30.11,ENE,69,0.0,2.0,83,0.00,,,0.00,0,weatherlink.com 1.10,2013-08-26 04:00:00,
2013-08-26 00:15:00,81.4,76.0,30.10,SE,130,1.0,3.0,83,0.00,,,0.00,0,weatherlink.com 1.10,2013-08-26 04:15:00,
2013-08-26 00:31:00,81.6,76.0,30.09,NE,45,1.0,3.0,82,0.00,,,0.00,0,weatherlink.com 1.10,2013-08-26 04:31:00,
2013-08-26 00:46:00,81.6,76.0,30.08,ESE,109,1.0,3.0,83,0.00,,,0.00,0,weatherlink.com 1.10,2013-08-26 04:46:00,
2013-08-26 01:01:00,81.6,76.0,30.07,ESE,108,0.0,2.0,83,0.00,,,0.00,0,weatherlink.com 1.10,2013-08-26 05:01:00,
2013-08-26 01:16:00,78.7,74.0,30.08,East,95,1.0,9.0,85,0.02,,,0.02,0,weatherlink.com 1.10,2013-08-26 05:16:00,
2013-08-26 01:31:00,77.2,72.0,30.07,ESE,117,0.0,3.0,85,0.02,,,0.02,0,weatherlink.com 1.10,2013-08-26 05:31:00,
2013-08-26 01:46:00,77.0,73.0,30.07,ESE,117,0.0,0.0,86,0.02,,,0.02,0,weatherlink.com 1.10,2013-08-26 05:46:00,
2013-08-26 02:01:00,77.2,73.0,30.06,ESE,117,0.0,1.0,87,0.02,,,0.02,0,weatherlink.com 1.10,2013-08-26 06:01:00,
2013-08-26 02:16:00,77.7,74.0,30.05,ESE,117,0.0,1.0,88,0.00,,,0.02,0,weatherlink.com 1.10,2013-08-26 06:16:00,
2013-08-26 02:31:00,77.8,74.0,30.05,ESE,117,0.0,1.0,89,0.00,,,0.02,0,weatherlink.com 1.10,2013-08-26 06:31:00,
2013-08-26 02:46:00,78.0,75.0,30.05,ESE,117,0.0,1.0,89,0.00,,,0.02,0,weatherlink.com 1.10,2013-08-26 06:46:00,
2013-08-26 03:01:00,77.9,75.0,30.05,ESE,117,0.0,0.0,89,0.00,,,0.02,0,weatherlink.com 1.10,2013-08-26 07:01:00,
2013-08-26 03:16:00,77.9,75.0,30.05,ESE,117,0.0,1.0,89,0.00,,,0.02,0,weatherlink.com 1.10,2013-08-26 07:16:00,
2013-08-26 03:31:00,77.7,74.0,30.05,ESE,117,0.0,0.0,89,0.00,,,0.02,0,weatherlink.com 1.10,2013-08-26 07:31:00,
2013-08-26 03:46:00,78.5,75.0,30.04,ESE,115,1.0,3.0,89,0.00,,,0.02,0,weatherlink.com 1.10,2013-08-26 07:46:00,
2013-08-26 04:01:00,79.2,75.0,30.04,ESE,113,0.0,4.0,88,0.00,,,0.02,0,weatherlink.com 1.10,2013-08-26 08:01:00,
2013-08-26 04:16:00,79.4,75.0,30.03,ESE,114,0.0,3.0,87,0.00,,,0.02,0,weatherlink.com 1.10,2013-08-26 08:16:00,
2013-08-26 04:31:00,79.3,75.0,30.02,ESE,115,0.0,2.0,87,0.00,,,0.02,0,weatherlink.com 1.10,2013-08-26 08:31:00,
2013-08-26 04:46:00,79.2,75.0,30.02,ESE,115,0.0,1.0,87,0.00,,,0.02,0,weatherlink.com 1.10,2013-08-26 08:46:00,
2013-08-26 05:01:00,79.0,75.0,30.02,North,10,0.0,2.0,87,0.00,,,0.02,0,weatherlink.com 1.10,2013-08-26 09:01:00,
2013-08-26 05:16:00,79.0,75.0,30.02,East,101,0.0,3.0,87,0.00,,,0.02,0,weatherlink.com 1.10,2013-08-26 09:16:00,
2013-08-26 05:31:00,78.9,74.0,30.03,East,101,0.0,0.0,86,0.00,,,0.02,0,weatherlink.com 1.10,2013-08-26 09:31:00,
2013-08-26 05:46:00,78.7,74.0,30.03,East,101,0.0,1.0,86,0.00,,,0.02,0,weatherlink.com 1.10,2013-08-26 09:46:00,
2013-08-26 06:01:00,78.6,75.0,30.04,East,101,0.0,1.0,87,0.00,,,0.02,0,weatherlink.com 1.10,2013-08-26 10:01:00,
2013-08-26 06:16:00,78.6,75.0,30.04,East,101,0.0,1.0,87,0.00,,,0.02,0,weatherlink.com 1.10,2013-08-26 10:16:00,
2013-08-26 06:31:00,78.5,74.0,30.04,East,101,0.0,1.0,87,0.00,,,0.02,0,weatherlink.com 1.10,2013-08-26 10:31:00,
2013-08-26 06:46:00,78.9,75.0,30.05,East,101,0.0,1.0,88,0.00,,,0.02,0,weatherlink.com 1.10,2013-08-26 10:46:00,
2013-08-26 07:01:00,79.0,76.0,30.05,East,101,0.0,0.0,89,0.00,,,0.02,0,weatherlink.com 1.10,2013-08-26 11:01:00,
2013-08-26 07:16:00,78.3,75.0,30.05,East,101,0.0,0.0,89,0.00,,,0.02,11,weatherlink.com 1.10,2013-08-26 11:16:00,
2013-08-26 07:31:00,78.0,75.0,30.05,East,100,0.0,0.0,89,0.00,,,0.02,21,weatherlink.com 1.10,2013-08-26 11:31:00,
2013-08-26 07:46:00,78.0,75.0,30.05,East,101,0.0,0.0,90,0.00,,,0.02,32,weatherlink.com 1.10,2013-08-26 11:46:00,
2013-08-26 08:01:00,78.4,76.0,30.05,East,100,0.0,0.0,91,0.00,,,0.02,42,weatherlink.com 1.10,2013-08-26 12:01:00,
2013-08-26 08:16:00,78.7,76.0,30.06,East,101,0.0,1.0,91,0.00,,,0.02,42,weatherlink.com 1.10,2013-08-26 12:16:00,
2013-08-26 08:31:00,78.9,76.0,30.06,East,101,0.0,0.0,91,0.00,,,0.02,58,weatherlink.com 1.10,2013-08-26 12:31:00,
2013-08-26 08:46:00,79.3,77.0,30.06,East,101,0.0,1.0,91,0.00,,,0.02,91,weatherlink.com 1.10,2013-08-26 12:46:00,
2013-08-26 09:01:00,80.4,78.0,30.07,East,100,0.0,1.0,91,0.00,,,0.02,207,weatherlink.com 1.10,2013-08-26 13:01:00,
2013-08-26 09:16:00,81.4,79.0,30.06,North,355,0.0,1.0,91,0.04,,,0.06,236,weatherlink.com 1.10,2013-08-26 13:16:00,
2013-08-26 09:32:00,82.0,79.0,30.07,North,355,0.0,1.0,91,0.04,,,0.06,200,weatherlink.com 1.10,2013-08-26 13:32:00,
2013-08-26 09:47:00,82.2,79.0,30.07,North,355,0.0,0.0,90,0.04,,,0.06,200,weatherlink.com 1.10,2013-08-26 13:47:00,
2013-08-26 10:02:00,81.6,77.0,30.07,North,355,0.0,0.0,87,0.02,,,0.06,193,weatherlink.com 1.10,2013-08-26 14:02:00,
2013-08-26 10:17:00,82.7,78.0,30.07,North,360,1.0,2.0,86,0.00,,,0.06,262,weatherlink.com 1.10,2013-08-26 14:17:00,
2013-08-26 10:32:00,83.1,77.0,30.07,East,84,0.0,3.0,82,0.00,,,0.06,513,weatherlink.com 1.10,2013-08-26 14:32:00,
2013-08-26 10:47:00,83.6,77.0,30.07,ESE,109,0.0,7.0,80,0.00,,,0.06,353,weatherlink.com 1.10,2013-08-26 14:47:00,
2013-08-26 11:02:00,84.9,77.0,30.08,ENE,63,2.0,7.0,77,0.00,,,0.06,698,weatherlink.com 1.10,2013-08-26 15:02:00,
2013-08-26 11:17:00,85.3,77.0,30.07,East,92,3.0,4.0,76,0.00,,,0.06,656,weatherlink.com 1.10,2013-08-26 15:17:00,
2013-08-26 11:32:00,85.0,76.0,30.07,East,94,1.0,4.0,75,0.00,,,0.06,756,weatherlink.com 1.10,2013-08-26 15:32:00,
2013-08-26 11:47:00,85.3,76.0,30.07,East,94,2.0,6.0,73,0.00,,,0.06,715,weatherlink.com 1.10,2013-08-26 15:47:00,
2013-08-26 12:02:00,85.4,76.0,30.07,NE,49,4.0,7.0,74,0.00,,,0.06,891,weatherlink.com 1.10,2013-08-26 16:02:00,
2013-08-26 12:17:00,86.0,76.0,30.06,SE,125,4.0,9.0,73,0.00,,,0.06,1123,weatherlink.com 1.10,2013-08-26 16:17:00,
2013-08-26 12:32:00,86.0,76.0,30.06,East,89,4.0,11.0,72,0.00,,,0.06,1055,weatherlink.com 1.10,2013-08-26 16:32:00,
2013-08-26 12:47:00,86.0,76.0,30.05,East,90,6.0,11.0,73,0.00,,,0.06,979,weatherlink.com 1.10,2013-08-26 16:47:00,
2013-08-26 13:02:00,85.5,76.0,30.05,East,81,4.0,9.0,72,0.00,,,0.06,963,weatherlink.com 1.10,2013-08-26 17:02:00,
2013-08-26 13:17:00,85.6,76.0,30.05,ENE,67,2.0,11.0,72,0.00,,,0.06,1000,weatherlink.com 1.10,2013-08-26 17:17:00,
2013-08-26 13:32:00,86.1,76.0,30.05,ESE,119,3.0,10.0,71,0.00,,,0.06,984,weatherlink.com 1.10,2013-08-26 17:32:00,
2013-08-26 13:47:00,86.5,77.0,30.05,ESE,103,7.0,13.0,73,0.00,,,0.06,995,weatherlink.com 1.10,2013-08-26 17:47:00,
2013-08-26 14:02:00,86.1,75.0,30.04,ESE,118,4.0,11.0,70,0.00,,,0.06,1009,weatherlink.com 1.10,2013-08-26 18:02:00,
2013-08-26 14:17:00,86.1,77.0,30.03,ESE,103,6.0,10.0,74,0.00,,,0.06,1021,weatherlink.com 1.10,2013-08-26 18:17:00,
2013-08-26 14:32:00,86.5,75.0,30.03,ESE,120,5.0,11.0,69,0.00,,,0.06,1020,weatherlink.com 1.10,2013-08-26 18:32:00,
2013-08-26 14:47:00,85.4,76.0,30.02,East,96,4.0,11.0,73,0.00,,,0.06,408,weatherlink.com 1.10,2013-08-26 18:47:00,
2013-08-26 15:02:00,84.5,76.0,30.02,ESE,117,2.0,11.0,75,0.00,,,0.06,821,weatherlink.com 1.10,2013-08-26 19:02:00,
2013-08-26 15:17:00,84.7,76.0,30.01,SE,124,2.0,9.0,75,0.00,,,0.06,833,weatherlink.com 1.10,2013-08-26 19:17:00,
2013-08-26 15:32:00,86.0,76.0,30.01,ENE,70,4.0,9.0,71,0.00,,,0.06,752,weatherlink.com 1.10,2013-08-26 19:32:00,
2013-08-26 15:47:00,85.0,76.0,30.02,South,184,1.0,8.0,74,0.00,,,0.06,592,weatherlink.com 1.10,2013-08-26 19:47:00,
2013-08-26 16:02:00,84.5,75.0,30.02,ESE,113,1.0,7.0,74,0.00,,,0.06,109,weatherlink.com 1.10,2013-08-26 20:02:00,
2013-08-26 16:17:00,83.7,75.0,30.01,SE,126,1.0,7.0,75,0.00,,,0.06,137,weatherlink.com 1.10,2013-08-26 20:17:00,
2013-08-26 16:32:00,83.3,75.0,30.01,ESE,117,1.0,6.0,77,0.00,,,0.06,118,weatherlink.com 1.10,2013-08-26 20:32:00,
2013-08-26 16:47:00,83.0,75.0,30.01,ESE,118,1.0,4.0,77,0.00,,,0.06,90,weatherlink.com 1.10,2013-08-26 20:47:00,
2013-08-26 17:02:00,83.1,75.0,30.01,ESE,112,4.0,6.0,77,0.00,,,0.06,234,weatherlink.com 1.10,2013-08-26 21:02:00,
2013-08-26 17:17:00,83.3,75.0,30.01,East,101,2.0,6.0,77,0.00,,,0.06,172,weatherlink.com 1.10,2013-08-26 21:17:00,
2013-08-26 17:32:00,83.4,76.0,30.01,SSW,195,2.0,6.0,77,0.00,,,0.06,151,weatherlink.com 1.10,2013-08-26 21:32:00,
2013-08-26 17:47:00,83.2,75.0,30.01,ESE,117,3.0,7.0,76,0.00,,,0.06,149,weatherlink.com 1.10,2013-08-26 21:47:00,
2013-08-26 18:02:00,83.0,75.0,30.01,East,101,1.0,7.0,76,0.00,,,0.06,14,weatherlink.com 1.10,2013-08-26 22:02:00,
2013-08-26 18:17:00,80.8,75.0,30.03,South,169,1.0,4.0,82,0.06,,,0.12,5,weatherlink.com 1.10,2013-08-26 22:17:00,
2013-08-26 18:32:00,77.7,73.0,30.04,West,273,1.0,3.0,86,0.27,,,0.33,5,weatherlink.com 1.10,2013-08-26 22:32:00,
2013-08-26 18:47:00,74.7,71.0,30.04,SW,232,0.0,2.0,88,0.31,,,0.37,5,weatherlink.com 1.10,2013-08-26 22:47:00,
2013-08-26 19:02:00,74.4,71.0,30.02,SW,232,0.0,1.0,88,0.31,,,0.37,9,weatherlink.com 1.10,2013-08-26 23:02:00,
2013-08-26 19:17:00,74.0,71.0,30.02,SW,232,0.0,0.0,89,0.23,,,0.37,11,weatherlink.com 1.10,2013-08-26 23:17:00,
2013-08-26 19:32:00,74.3,71.0,30.02,SW,232,0.0,1.0,90,0.03,,,0.37,5,weatherlink.com 1.10,2013-08-26 23:32:00,
2013-08-26 19:47:00,74.0,71.0,30.02,SW,232,0.0,1.0,90,0.00,,,0.37,0,weatherlink.com 1.10,2013-08-26 23:47:00,
2013-08-26 20:03:00,73.4,70.0,30.02,SW,232,0.0,0.0,90,0.00,,,0.37,0,weatherlink.com 1.10,2013-08-27 00:03:00,
2013-08-26 20:18:00,72.8,70.0,30.02,SW,232,0.0,0.0,91,0.00,,,0.37,0,weatherlink.com 1.10,2013-08-27 00:18:00,
2013-08-26 20:33:00,72.8,70.0,30.02,SW,232,0.0,1.0,91,0.00,,,0.37,0,weatherlink.com 1.10,2013-08-27 00:33:00,
2013-08-26 20:48:00,72.9,70.0,30.02,SW,232,0.0,1.0,91,0.01,,,0.38,0,weatherlink.com 1.10,2013-08-27 00:48:00,
2013-08-26 21:03:00,72.9,70.0,30.02,SW,232,0.0,1.0,91,0.01,,,0.38,0,weatherlink.com 1.10,2013-08-27 01:03:00,
2013-08-26 21:18:00,73.0,71.0,30.01,SW,232,0.0,0.0,92,0.01,,,0.38,0,weatherlink.com 1.10,2013-08-27 01:18:00,
2013-08-26 21:33:00,73.2,71.0,30.02,SW,232,0.0,0.0,92,0.01,,,0.38,0,weatherlink.com 1.10,2013-08-27 01:33:00,
2013-08-26 21:48:00,73.5,71.0,30.03,SW,232,0.0,1.0,92,0.00,,,0.38,0,weatherlink.com 1.10,2013-08-27 01:48:00,
2013-08-26 22:03:00,73.2,71.0,30.03,SW,232,0.0,1.0,92,0.00,,,0.38,0,weatherlink.com 1.10,2013-08-27 02:03:00,
2013-08-26 22:18:00,73.3,71.0,30.03,SW,232,0.0,0.0,92,0.00,,,0.38,0,weatherlink.com 1.10,2013-08-27 02:18:00,
2013-08-26 22:33:00,73.4,71.0,30.02,SW,232,0.0,0.0,92,0.00,,,0.38,0,weatherlink.com 1.10,2013-08-27 02:33:00,
2013-08-26 22:48:00,73.4,71.0,30.02,SW,232,0.0,0.0,93,0.00,,,0.38,0,weatherlink.com 1.10,2013-08-27 02:48:00,
2013-08-26 23:03:00,73.7,71.0,30.03,SW,232,0.0,1.0,92,0.00,,,0.38,0,weatherlink.com 1.10,2013-08-27 03:03:00,
2013-08-26 23:18:00,73.7,72.0,30.03,SW,232,0.0,1.0,93,0.00,,,0.38,0,weatherlink.com 1.10,2013-08-27 03:18:00,
2013-08-26 23:33:00,73.9,72.0,30.03,SW,232,0.0,0.0,93,0.00,,,0.38,0,weatherlink.com 1.10,2013-08-27 03:33:00,
2013-08-26 23:48:00,73.9,72.0,30.03,SW,232,0.0,1.0,93,0.00,,,0.38,0,weatherlink.com 1.10,2013-08-27 03:48:00,